Regional Weather Roundup
Issued by NWS

Home | Current Version | Previous Version | Text Only | Print | Product List | Glossary Off
Versions: 1 2 3 4 5 6 7 8 9 10 11 12 13 14 15 16 17 18 19 20 21 22 23 24 25 26 27 28 29 30 31 32 33 34 35 36 37 38 39 40 41 42 43 44 45 46 47 48 49 50

000
ASUS43 KMPX 261601
RWRMN
WEATHER ROUNDUP FOR MINNESOTA
NATIONAL WEATHER SERVICE TWIN CITIES/CHANHASSEN MN
1100 AM CDT FRI MAY 26 2017


NOTE: "FAIR" INDICATES FEW OR NO CLOUDS BELOW 12,000 FEET WITH NO
SIGNIFICANT WEATHER AND/OR OBSTRUCTIONS TO VISIBILITY. N/A MEANS
CURRENT SKY AND/OR WEATHER CONDITIONS ARE NOT AVAILABLE.

MNZ060>063-068>070-261700-
   Twin Cities Metro

CITY           SKY/WX    TMP DP  RH WIND       PRES   REMARKS
TWIN CITIES    CLOUDY    67  54  63 S7        29.74S
ST PAUL        MOSUNNY   66  57  72 S9        29.74S
CRYSTAL        CLOUDY    67  52  58 S10       29.73R
BLAINE         CLOUDY    68  55  64 S10       29.74R
LAKEVILLE      CLOUDY    66  55  68 SW3       29.74S
EDEN PRAIRIE   MOSUNNY   67  55  65 S7        29.73S
SOUTH ST PAUL  CLOUDY    66  54  65 S6        29.74S
LAKE ELMO      FAIR      64  55  72 S10       29.75S
$$
MNZ001>005-007-008-013>017-022>024-027-028-261700-
   Northwest Minnesota

CITY           SKY/WX    TMP DP  RH WIND       PRES   REMARKS
BEMIDJI        SUNNY     68  50  52 SW6       29.66S
HALLOCK        PTSUNNY   66  48  52 W14       29.60F
ROSEAU         SUNNY     68  48  49 SW8       29.61F
WARROAD        SUNNY     66  52  59 SE3       29.62S
CROOKSTON      SUNNY     66  48  52 W7        29.65S
FOSSTON        SUNNY     66  46  48 SW12G17   29.67R
DETROIT LAKES  SUNNY     64  45  48 W9        29.70S
MOORHEAD       SUNNY     66  46  48 W12G21    29.69S
PARK RAPIDS    SUNNY     69  48  47 W10       29.68R
MAHNOMEN       FAIR      67  45  45 SW10      29.67S
$$
MNZ006-009>011-018-025>026-261700-
   North Central Minnesota

CITY           SKY/WX    TMP DP  RH WIND       PRES   REMARKS
BAUDETTE       PTSUNNY   67  54  63 SW6       29.62F
FLAG ISLAND    MOSUNNY   57  54  88 S8        29.60F
INTL FALLS     PTSUNNY   67  54  63 VRB6      29.64S
WASKISH        PTSUNNY   66  55  68 W10       29.65S
BIG FORK       SUNNY     68  55  64 S8        29.66F
LONGVILLE      SUNNY     68  55  64 SW8       29.68R
GRAND RAPIDS   SUNNY     66  56  70 S10       29.69F
CRANE LAKE     CLOUDY    61  52  72 S7        29.69S
ORR            CLOUDY    64  52  63 S10       29.65S
COOK           CLOUDY    63  54  72 S8        29.69S
WALKER         FAIR      67  53  60 SW8       29.67S
$$
MNZ012-019>021-037-261700-
   Northeast Minnesota

CITY           SKY/WX    TMP DP  RH WIND       PRES   REMARKS
DULUTH         CLOUDY    57  51  80 SE9       29.73F
ELY            CLOUDY    59  52  77 S9        29.71F
HIBBING        PTSUNNY   62  54  74 S8        29.69F
EVELETH        CLOUDY    63  51  64 S12G17    29.71F
DULUTH HARBOR  PTSUNNY   46  45  93 E9        29.75F
TWO HARBORS    CLOUDY    57  52  82 E5        29.73F
SILVER BAY     CLOUDY    52  50  93 CALM      29.74F
GRAND MARAIS     N/A     46  43  89 NE8       29.79R
G MARAIS ARPRT CLOUDY    57  45  62 S7        29.79R
$$
MNZ029>031-032-039>041-046>048-054>057-064-261700-
   West Central Minnesota

CITY           SKY/WX    TMP DP  RH WIND       PRES   REMARKS
FERGUS FALLS   SUNNY     66  52  59 W7        29.70S
WHEATON        SUNNY     66  46  48 W10G18    29.74S
MORRIS         SUNNY     66  52  59 W12       29.73R
ALEXANDRIA     MOSUNNY   66  49  54 W10       29.73R
ELBOW LAKE     FAIR      64  50  59 SW12      29.73R
WADENA         SUNNY     66  52  59 W6        29.69S
GLENWOOD       SUNNY     66  52  59 W10       29.73R
APPLETON       SUNNY     68  48  49 W12       29.74R
BENSON         MOSUNNY   70  48  46 NW13      29.75R
ORTONVILLE     SUNNY     66  48  52 W10       29.74S
MADISON        SUNNY     70  52  52 W10G18    29.75S
WILLMAR        FAIR      70  54  56 NW10      29.74R
$$
MNZ033>034-036-042>043-049>051-058-059-261700-
   Central Minnesota

CITY           SKY/WX    TMP DP  RH WIND       PRES   REMARKS
ST CLOUD       MOSUNNY   69  58  67 S8        29.70S
SAUK CENTRE    FAIR      67  54  61 W8        29.71S
PAYNESVILLE    SUNNY     69  54  60 W7        29.72S
AITKIN         SUNNY     66  55  68 SE6       29.68S
PINE RIVER     MOSUNNY   66  57  72 S7        29.71S
BRAINERD       SUNNY     68  56  65 S10       29.69S
STAPLES        SUNNY     66  52  59 W8        29.70R
LONG PRAIRIE   FAIR      66  52  59 SW7       29.71S
LITTLE FALLS   SUNNY     68  55  64 S7        29.70S
LITCHFIELD     SUNNY     70  59  68 CALM      29.73S
BUFFALO        MOSUNNY   68  55  64 SE9       29.73S
MAPLE LAKE     MOSUNNY   70  59  67 S3        29.73S
HUTCHINSON     SUNNY     69  58  68 SW5       29.74S
$$
MNZ037-044-045-052-053-261700-
   East Central Minnesota

CITY           SKY/WX    TMP DP  RH WIND       PRES   REMARKS
PRINCETON      MOSUNNY   72  57  60 S9        29.72S
MORA           PTSUNNY   64  54  68 S8        29.73S
CAMBRIDGE      PTSUNNY   72  55  56 S8        29.70F
RUSH CITY      CLOUDY    67  55  65 S10       29.73S
MOOSE LAKE     CLOUDY    66  54  63 SW9       29.70S
HINCKLEY       FAIR      68  57  68 S10G16    29.73S
CLOQUET        CLOUDY    57  48  72 E7        29.72S
MCGREGOR       MOSUNNY   66  55  68 SE7       29.70S
$$
MNZ071>073-080-081-089-090-097-098-261700-
   Southwest Minnesota

CITY           SKY/WX    TMP DP  RH WIND       PRES   REMARKS
MONTEVIDEO     SUNNY     68  52  56 NW7       29.74S
CANBY          SUNNY     67  51  56 NW12      29.77S
MARSHALL       SUNNY     68  52  56 NW13G20   29.76R
REDWOOD FALLS  SUNNY     69  52  54 W7        29.73S
OLIVIA         SUNNY     70  54  56 NW9       29.72S
PIPESTONE      SUNNY     66  45  45 NW12G18   29.79S
WINDOM         MOSUNNY   70  52  52 NW8       29.76S
WORTHINGTON    CLOUDY    67  52  58 NW9       29.78S
JACKSON        CLOUDY    68  54  60 NW5       29.76S
TRACY          SUNNY     68  53  58 NW10      29.77R
SLAYTON        MOSUNNY   65  51  60 NW15      29.79R
$$
MNZ065>067-074>077-082>085-091>093-261700-
   South Central Minnesota

CITY           SKY/WX    TMP DP  RH WIND       PRES   REMARKS
MANKATO        PTSUNNY   67  55  65 SW12      29.75S
NEW ULM        SUNNY     68  55  64 W5        29.74S
ST JAMES       MOSUNNY   70  55  60 W8        29.76R
FAIRMONT       CLOUDY    67  55  65 W7        29.76R
GLENCOE        MOSUNNY   69  61  75 S7        29.73S
FARIBAULT      CLOUDY    68  55  64 S7        29.76S
OWATONNA       CLOUDY    64  54  68 S12       29.76S
WASECA         MOSUNNY   63  54  72 S10       29.77S
ALBERT LEA     CLOUDY    64  55  72 S3        29.77R
$$
MNZ078>079-086>088-094>096-261700-
   Southeast Minnesota

CITY           SKY/WX    TMP DP  RH WIND       PRES   REMARKS
ROCHESTER      CLOUDY    67  56  67 S13       29.77F
RED WING       CLOUDY    70  54  56 SE6       29.74F
STANTON        CLOUDY    69  56  64 S8        29.74S
DODGE CENTER   CLOUDY    66  55  68 S15       29.77R
WINONA         CLOUDY    70  55  60 SE5       29.77F
AUSTIN         CLOUDY    64  55  72 S9        29.77R
PRESTON        CLOUDY    65  53  65 S10       29.78F
$$
ABBREVIATIONS USED IN REMARKS
   TC - TEMPERATURES IN CELSIUS
  WCI - WIND CHILL INDEX
   HX - HEAT INDEX
  VSB - VISIBILITY
$$



USA.gov is the U.S. government's official web portal to all federal, state and local government web resources and services.